Location: Contre
(49.7477°N, 2.0963°E)
Time: 19:19:04
(UTC+00:00)

AO-85 - Visible Passes

Search period start: 26 May 2024 00:00
Search period end: 05 June 2024 00:00
Orbit: 490 x 755 km, 64.8° (Epoch: 26 May)

Date Brightness Start Highest point End Pass type
(mag) Time Alt. Az. Time Alt. Az. Time Alt. Az.
26 May ? 00:20:51 10° WNW 00:24:48 22° WSW 00:25:23 21° WSW visible
26 May ? 21:18:38 10° NNW 21:23:21 34° NE 21:28:08 10° E visible
26 May ? 22:58:33 10° NW 23:03:44 63° SW 23:05:54 34° SSE visible
27 May ? 00:41:07 10° W 00:42:49 12° WSW 00:43:04 11° WSW visible
27 May ? 21:37:01 10° NW 21:42:06 51° NE 21:46:26 14° ESE visible
27 May ? 23:17:17 10° NW 23:22:03 36° WSW 23:23:37 29° SSW visible
28 May ? 21:55:27 10° NW 22:00:42 82° NE 22:04:12 22° SE visible
28 May ? 23:36:24 10° WNW 23:40:11 20° WSW 23:41:23 19° SW visible
29 May ? 20:34:02 10° NNW 20:38:48 35° NE 20:43:37 10° ESE visible
29 May ? 22:13:58 10° NW 22:19:08 60° WSW 22:22:00 26° SSE visible
29 May ? 23:57:00 10° W 23:58:10 11° WSW 23:59:11 10° WSW visible
30 May ? 20:52:23 10° NW 20:57:30 53° NE 21:02:39 10° ESE visible
30 May ? 22:32:41 10° NW 22:37:23 34° WSW 22:39:50 23° SSW visible
31 May ? 21:10:47 10° NW 21:16:02 86° NE 21:20:30 15° SE visible
31 May ? 22:51:50 10° WNW 22:55:29 19° WSW 22:57:42 15° SW visible
01 Jun ? 21:29:17 10° NW 21:34:25 57° WSW 21:38:24 17° SSE visible
02 Jun ? 21:47:59 10° NW 21:52:37 32° WSW 21:56:21 14° S visible
03 Jun ? 22:07:10 10° WNW 22:10:40 18° WSW 22:14:09 10° SSW visible
04 Jun ? 20:44:29 10° NW 20:49:36 54° WSW 20:54:41 10° SSE visible
